Date String (YYYY-MM-DD hh:mm:ss) UTC,Instrument flags,Ambient pressure (hPa),Sample flow (lpm),Bypass flow (lpm),Sample temperature (°C),Ambient temperature (°C),ASC tube jacket temperature (°C),LED temperature (°C),Box temperature (°C),Sample RH (%),Span deviation,Mass concentration (μg/m³),Mass concentration (μg/m³),Mass concentration (μg/m³)
DateTimeUTC,F1_M11,P_M11,Q1_M11,Q2_M11,T1_M11,T2_M11,T3_M11,T4_M11,T5_M11,U1_M11,ZSPAN_M11,X0_M11,X2_M11,X1_M11
2023-04-11 16:00:00,,0832.2,5.01,0.00,26.4,25.1,00.0,34.6,28.1,14.7,0000.0,0011.63,0003.65,0002.05
2023-04-11 16:01:00,,0832.2,5.02,0.00,26.4,25.1,00.0,34.6,28.1,14.7,0000.0,0011.68,0003.64,0002.05
2023-04-11 16:02:00,,0832.2,5.01,0.00,26.4,25.1,00.0,34.7,28.1,14.7,0000.0,0011.31,0003.59,0002.04
2023-04-11 16:03:00,,0832.2,5.00,0.00,26.4,25.1,00.0,34.7,28.1,14.7,0000.0,0010.53,0003.53,0002.03
2023-04-11 16:04:00,,0832.2,4.99,0.00,26.4,25.1,00.0,34.7,28.1,14.5,0000.0,0010.98,0003.50,0002.03
2023-04-11 16:05:00,,0832.2,4.98,0.00,26.5,25.1,00.0,34.7,28.1,14.4,0000.0,0010.85,0003.49,0002.01
2023-04-11 16:06:00,,0832.2,5.01,0.00,26.5,25.2,00.0,34.7,28.2,14.6,0000.0,0010.79,0003.48,0001.99
2023-04-11 16:07:00,,0832.2,5.02,0.00,26.5,25.2,00.0,34.7,28.2,14.6,0000.0,0010.81,0003.51,0001.98
2023-04-11 16:08:00,,0832.2,5.00,0.00,26.5,25.2,00.0,34.7,28.2,14.7,0000.0,0010.50,0003.56,0001.96
2023-04-11 16:09:00,,0832.2,5.00,0.00,26.5,25.2,00.0,34.7,28.2,14.4,0000.0,0011.19,0003.51,0001.93
2023-04-11 16:10:00,,0832.2,5.00,0.00,26.5,25.2,00.0,34.7,28.2,14.3,0000.0,0011.32,0003.51,0001.91
2023-04-11 16:11:00,,0832.2,5.00,0.00,26.5,25.3,00.0,34.8,28.2,14.0,0000.0,0011.63,0003.57,0001.92
2023-04-11 16:12:00,,0832.2,5.00,0.00,26.6,25.3,00.0,34.8,28.2,13.7,0000.0,0011.39,0003.60,0001.90
2023-04-11 16:13:00,,0832.2,4.99,0.00,26.6,25.3,00.0,34.8,28.3,14.2,0000.0,0011.54,0003.63,0001.91
2023-04-11 16:14:00,,0832.2,5.01,0.00,26.6,25.3,00.0,34.8,28.2,14.2,0000.0,0011.71,0003.64,0001.91
2023-04-11 16:15:00,,0832.2,5.01,0.00,26.6,25.3,00.0,34.8,28.3,14.1,0000.0,0010.99,0003.65,0001.89
2023-04-11 16:16:00,,0832.2,5.00,0.00,26.6,25.3,00.0,34.8,28.3,13.9,0000.0,0011.61,0003.60,0001.88
2023-04-11 16:17:00,,0832.2,5.00,0.00,26.6,25.3,00.0,34.8,28.3,14.0,0000.0,0011.68,0003.58,0001.89
2023-04-11 16:18:00,,0832.2,4.99,0.00,26.6,25.3,00.0,34.9,28.3,13.8,0000.0,0011.57,0003.59,0001.89
2023-04-11 16:19:00,,0832.2,5.00,0.00,26.7,25.4,00.0,34.9,28.3,13.6,0000.0,0011.33,0003.54,0001.90
2023-04-11 16:20:00,,0832.2,5.01,0.00,26.7,25.4,00.0,34.9,28.4,13.8,0000.0,0011.05,0003.55,0001.92
2023-04-11 16:21:00,,0832.2,5.01,0.00,26.7,25.4,00.0,34.9,28.4,13.4,0000.0,0011.24,0003.58,0001.94
2023-04-11 16:22:00,,0832.2,5.01,0.00,26.7,25.4,00.0,34.9,28.4,13.5,0000.0,0011.59,0003.57,0001.92
2023-04-11 16:23:00,,0832.2,4.99,0.00,26.7,25.4,00.0,34.9,28.4,13.6,0000.0,0011.59,0003.56,0001.93
2023-04-11 16:24:00,,0832.2,4.99,0.00,26.7,25.5,00.0,34.9,28.5,13.7,0000.0,0011.58,0003.52,0001.93
2023-04-11 16:25:00,,0832.2,5.01,0.00,26.8,25.5,00.0,34.9,28.5,13.8,0000.0,0011.55,0003.54,0001.95
2023-04-11 16:26:00,,0832.2,5.01,0.00,26.8,25.5,00.0,35.0,28.5,13.7,0000.0,0011.32,0003.53,0001.97
2023-04-11 16:27:00,,0832.2,5.01,0.00,26.8,25.5,00.0,35.0,28.5,13.8,0000.0,0010.75,0003.58,0001.97
2023-04-11 16:28:00,,0832.2,4.99,0.00,26.8,25.5,00.0,35.0,28.5,13.8,0000.0,0011.02,0003.60,0001.98
2023-04-11 16:29:00,,0832.2,4.98,0.00,26.8,25.6,00.0,35.0,28.5,14.1,0000.0,0011.42,0003.60,0001.99
2023-04-11 16:30:00,,0832.2,5.00,0.00,26.8,25.6,00.0,35.0,28.5,13.8,0000.0,0011.57,0003.64,0002.00
2023-04-11 16:31:00,,0832.2,4.99,0.00,26.8,25.6,00.0,35.1,28.5,13.7,0000.0,0011.01,0003.65,0002.00
2023-04-11 16:32:00,,0832.2,5.00,0.00,26.9,25.6,00.0,35.1,28.5,13.4,0000.0,0010.30,0003.63,0002.01
2023-04-11 16:33:00,,0832.2,5.00,0.00,26.9,25.6,00.0,35.1,28.6,13.3,0000.0,0010.18,0003.60,0002.02
2023-04-11 16:34:00,,0832.2,5.00,0.00,26.9,25.6,00.0,35.1,28.6,13.2,0000.0,0010.70,0003.62,0002.01
2023-04-11 16:35:00,,0832.2,5.00,0.00,26.9,25.7,00.0,35.1,28.6,13.2,0000.0,0010.81,0003.69,0002.01
2023-04-11 16:36:00,,0832.2,5.00,0.00,26.9,25.7,00.0,35.1,28.6,13.1,0000.0,0010.88,0003.71,0001.99
2023-04-11 16:37:00,,0832.2,5.01,0.00,26.9,25.7,00.0,35.1,28.6,13.2,0000.0,0010.72,0003.66,0001.97
2023-04-11 16:38:00,,0832.2,5.00,0.00,26.9,25.7,00.0,35.2,28.7,13.3,0000.0,0010.75,0003.68,0001.97
2023-04-11 16:39:00,,0832.2,5.00,0.00,27.0,25.7,00.0,35.2,28.7,13.6,0000.0,0011.16,0003.66,0001.96
2023-04-11 16:40:00,,0832.2,4.99,0.00,27.0,25.7,00.0,35.2,28.7,13.8,0000.0,0011.52,0003.68,0001.96
2023-04-11 16:41:00,,0832.2,4.98,0.00,27.0,25.8,00.0,35.2,28.7,13.7,0000.0,0011.49,0003.70,0001.97
2023-04-11 16:42:00,,0832.2,5.00,0.00,27.0,25.8,00.0,35.2,28.7,13.8,0000.0,0011.57,0003.67,0001.97
2023-04-11 16:43:00,,0832.2,5.01,0.00,27.0,25.8,00.0,35.2,28.7,13.8,0000.0,0011.68,0003.66,0001.96
2023-04-11 16:44:00,,0832.2,5.00,0.00,27.0,25.8,00.0,35.3,28.7,13.8,0000.0,0011.58,0003.68,0001.94
2023-04-11 16:45:00,,0832.1,5.00,0.00,27.1,25.8,00.0,35.3,28.8,13.8,0000.0,0011.48,0003.77,0001.96
2023-04-11 16:46:00,,0832.1,5.00,0.00,27.1,25.8,00.0,35.3,28.8,13.7,0000.0,0011.74,0003.74,0001.96
2023-04-11 16:47:00,,0832.0,5.01,0.00,27.1,25.9,00.0,35.3,28.8,13.6,0000.0,0012.35,0003.72,0001.97
2023-04-11 16:48:00,,0832.0,4.99,0.00,27.1,25.9,00.0,35.3,28.8,14.3,0000.0,0012.38,0003.76,0001.98
2023-04-11 16:49:00,,0832.1,5.00,0.00,27.1,25.9,00.0,35.3,28.9,14.8,0000.0,0012.41,0003.76,0001.98
2023-04-11 16:50:00,,0832.0,4.99,0.00,27.1,25.9,00.0,35.4,28.9,14.5,0000.0,0011.83,0003.78,0001.99
2023-04-11 16:51:00,,0832.0,4.99,0.00,27.2,25.9,00.0,35.4,28.9,14.2,0000.0,0011.16,0003.84,0002.00
2023-04-11 16:52:00,,0832.0,5.00,0.00,27.2,25.9,00.0,35.4,28.9,14.0,0000.0,0011.69,0003.85,0001.98
2023-04-11 16:53:00,,0832.0,5.00,0.00,27.2,26.0,00.0,35.4,29.0,13.9,0000.0,0011.52,0003.84,0001.98
2023-04-11 16:54:00,,0832.1,5.00,0.00,27.2,26.0,00.0,35.4,29.0,13.8,0000.0,0011.29,0003.84,0001.98
2023-04-11 16:55:00,,0832.0,4.99,0.00,27.2,26.0,00.0,35.4,29.0,12.9,0000.0,0011.23,0003.85,0001.99
2023-04-11 16:56:00,,0832.0,5.01,0.00,27.3,26.0,00.0,35.4,29.0,12.4,0000.0,0010.96,0003.78,0001.97
2023-04-11 16:57:00,,0832.0,5.00,0.00,27.3,26.0,00.0,35.5,29.0,12.3,0000.0,0010.27,0003.76,0001.96
2023-04-11 16:58:00,,0832.0,5.00,0.00,27.3,26.0,00.0,35.5,29.0,12.8,0000.0,0009.64,0003.75,0001.96
2023-04-11 16:59:00,,0832.0,4.99,0.00,27.3,26.1,00.0,35.5,29.0,13.1,0000.0,,,
